OK,154,42,792,154,2014-10-01T01:40:00,0,28072562,187377
OK,154,42,792,154,2014-10-01T01:45:00,0,28073009,187377
OK,154,42,792,154,2014-10-01T01:50:00,0,28073458,187377
OK,154,42,792,154,2014-10-01T01:55:00,0,28073777,187377
OK,154,42,792,154,2014-10-01T02:00:00,0,28074224,187377
OK,154,42,792,154,2014-10-01T02:05:00,0,28074667,187377
OK,154,42,792,154,2014-10-01T02:15:00,0,28075113,187377
OK,154,42,792,154,2014-10-01T02:20:00,0,28075562,187377
OK,154,42,792,154,2014-10-01T02:25:00,0,28076000,187377
OK,154,42,792,154,2014-10-01T02:30:00,0,28076394,187377
OK,154,42,792,154,2014-10-01T02:35:00,0,28076843,187377
OK,154,42,792,154,2014-10-01T02:40:00,0,28077292,187377
OK,154,42,792,154,2014-10-01T02:50:00,0,28078144,187377
OK,154,42,792,154,2014-10-01T02:55:00,0,28078593,187377
OK,154,42,792,154,2014-10-01T03:00:00,0,28079038,187377
OK,154,42,792,154,2014-10-01T03:05:00,0,28079486,187377
OK,154,42,792,154,2014-10-01T03:10:00,0,28079929,187377
OK,154,42,792,154,2014-10-01T03:20:00,0,28080712,187377
OK,154,42,792,154,2014-10-01T03:25:00,0,28081161,187377
OK,154,42,792,154,2014-10-01T03:30:00,0,28081609,187377
OK,154,42,792,154,2014-10-01T03:35:00,0,28082057,187377
OK,154,42,792,154,2014-10-01T03:40:00,0,28082506,187377
OK,154,42,792,154,2014-10-01T03:45:00,0,28082936,187377
OK,154,42,792,154,2014-10-01T03:50:00,0,28083371,187377
OK,154,42,792,154,2014-10-01T03:55:00,0,28083820,187377
OK,154,42,792,154,2014-10-01T04:00:00,0,28084269,187377
OK,154,42,792,154,2014-10-01T04:05:00,0,28084709,187377
OK,154,42,792,154,2014-10-01T04:10:00,0,28085135,187377
OK,154,42,792,154,2014-10-01T04:15:00,0,28085584,187377
OK,154,42,792,154,2014-10-01T04:20:00,0,28086029,187377
OK,154,42,792,154,2014-10-01T04:25:00,0,28086478,187377
OK,154,42,792,154,2014-10-01T04:30:00,0,28086920,187377
OK,154,42,792,154,2014-10-01T04:35:00,0,28087369,187377
OK,154,42,792,154,2014-10-01T04:40:00,0,28087814,187377
OK,154,42,792,154,2014-10-01T04:45:00,0,28088263,187377
OK,154,42,792,154,2014-10-01T04:50:00,0,28088687,187377
OK,154,42,792,154,2014-10-01T05:00:00,0,28089566,187377
OK,154,42,792,154,2014-10-01T05:05:00,0,28090015,187377
OK,154,42,792,154,2014-10-01T05:10:00,0,28090464,187377
OK,154,42,792,154,2014-10-01T05:15:00,0,28090808,187377
OK,154,42,792,154,2014-10-01T05:20:00,0,28091257,187377
OK,154,42,792,154,2014-10-01T05:25:00,0,28091701,187377
OK,154,42,792,154,2014-10-01T05:30:00,0,28092123,187377
OK,154,42,792,154,2014-10-01T05:35:00,0,28092571,187377
OK,154,42,792,154,2014-10-01T05:40:00,0,28093016,187377
OK,154,42,792,154,2014-10-01T05:45:00,0,28093449,187377
OK,154,42,792,154,2014-10-01T05:50:00,0,28093888,187377
OK,154,42,792,154,2014-10-01T05:55:00,0,28094330,187377
OK,154,42,792,154,2014-10-01T06:05:00,0,28095193,187377
OK,154,42,792,154,2014-10-01T06:10:00,0,28095640,187377
OK,154,42,792,154,2014-10-01T06:20:00,0,28096502,187377
OK,112,59,792,112,2014-10-01T06:25:00,1,28096951,187377
OK,112,59,792,112,2014-10-01T06:30:00,1,28097385,187377
OK,174,38,792,174,2014-10-01T06:35:00,1,28097834,187377
OK,174,38,792,174,2014-10-01T06:40:00,1,28098283,187377
OK,174,38,792,174,2014-10-01T06:45:00,0,28098720,187377
OK,174,38,792,174,2014-10-01T06:50:00,0,28099164,187377
OK,174,38,792,174,2014-10-01T07:00:00,0,28099955,187377
OK,174,38,792,174,2014-10-01T07:10:00,0,28100711,187377
OK,174,38,792,174,2014-10-01T07:20:00,0,28101531,187377
OK,113,58,792,113,2014-10-01T07:25:00,3,28101980,187377
OK,116,57,792,116,2014-10-01T07:30:00,2,28102416,187377
OK,113,58,792,113,2014-10-01T07:35:00,0,28102865,187377
OK,113,58,792,113,2014-10-01T07:40:00,0,28103292,187377
OK,115,57,792,115,2014-10-01T07:45:00,1,28103739,187377
OK,115,57,792,115,2014-10-01T07:50:00,1,28104184,187377
OK,115,57,792,115,2014-10-01T07:55:00,0,28104629,187377
OK,115,57,792,115,2014-10-01T08:00:00,0,28105068,187377
OK,115,57,792,115,2014-10-01T08:05:00,0,28105514,187377
OK,115,57,792,115,2014-10-01T08:10:00,0,28105955,187377
OK,115,57,792,115,2014-10-01T08:15:00,0,28106403,187377
OK,115,57,792,115,2014-10-01T08:20:00,0,28107230,187377
OK,115,57,792,115,2014-10-01T08:30:00,0,28107679,187377
OK,115,57,792,115,2014-10-01T08:35:00,0,28108122,187377
OK,152,43,792,152,2014-10-01T08:40:00,1,28108567,187377
OK,152,43,792,152,2014-10-01T08:45:00,1,28109010,187377
OK,152,43,792,152,2014-10-01T08:50:00,0,28109444,187377
OK,152,43,792,152,2014-10-01T09:00:00,0,28110236,187377
OK,158,41,792,158,2014-10-01T09:10:00,1,28111108,187377
OK,127,52,792,127,2014-10-01T09:20:00,1,28111986,187377
OK,127,52,792,127,2014-10-01T09:30:00,0,28112776,187377
OK,127,52,792,127,2014-10-01T09:35:00,0,28113212,187377
OK,127,52,792,127,2014-10-01T09:40:00,0,28113649,187377
OK,127,52,792,127,2014-10-01T09:50:00,0,28114530,187377
OK,127,52,792,127,2014-10-01T10:00:00,0,28115333,187377
OK,127,52,792,127,2014-10-01T10:10:00,0,28116194,187377
OK,127,52,792,127,2014-10-01T10:20:00,0,28117051,187377
OK,102,64,792,102,2014-10-01T10:30:00,1,28117925,187377
OK,111,59,792,111,2014-10-01T10:35:00,2,28118372,187377
OK,111,59,792,111,2014-10-01T10:40:00,2,28118818,187377
OK,108,61,792,108,2014-10-01T10:45:00,0,28119263,187377
OK,108,61,792,108,2014-10-01T10:50:00,0,28119710,187377
OK,82,80,792,82,2014-10-01T10:55:00,1,28120157,187377
OK,82,80,792,82,2014-10-01T11:00:00,0,28120606,187377
OK,82,80,792,82,2014-10-01T11:10:00,0,28121438,187377
OK,82,80,792,82,2014-10-01T11:20:00,0,28122325,187377
OK,82,80,792,82,2014-10-01T11:30:00,0,28123215,187377
OK,82,80,792,82,2014-10-01T11:40:00,0,28124096,187377
OK,183,36,792,183,2014-10-01T11:50:00,1,28124947,187377
OK,110,60,792,110,2014-10-01T12:00:00,1,28125825,187377
OK,110,60,792,110,2014-10-01T12:05:00,1,28126626,187377
OK,110,60,792,110,2014-10-01T12:10:00,0,28127075,187377
OK,165,40,792,165,2014-10-01T12:20:00,1,28127524,187377
OK,165,40,792,165,2014-10-01T12:30:00,0,28128401,187377
OK,204,32,792,204,2014-10-01T12:35:00,1,28129285,187377
OK,204,32,792,204,2014-10-01T12:40:00,1,28129720,187377
OK,158,41,792,158,2014-10-01T12:50:00,1,28130168,187377
OK,158,41,792,158,2014-10-01T12:55:00,1,28131045,187377
OK,158,41,792,158,2014-10-01T13:00:00,0,28131485,187377
OK,158,41,792,158,2014-10-01T13:05:00,0,28131931,187377
OK,158,41,792,158,2014-10-01T13:10:00,0,28132370,187377
OK,158,41,792,158,2014-10-01T13:15:00,0,28132816,187377
OK,158,41,792,158,2014-10-01T13:20:00,0,28133254,187377
OK,124,53,792,124,2014-10-01T13:25:00,1,28133703,187377
OK,124,53,792,124,2014-10-01T13:30:00,0,28134142,187377
OK,124,53,792,124,2014-10-01T13:35:00,0,28134591,187377
OK,124,53,792,124,2014-10-01T13:40:00,0,28135011,187377
OK,124,53,792,124,2014-10-01T13:45:00,0,28135459,187377
OK,124,53,792,124,2014-10-01T13:50:00,0,28135896,187377
OK,124,53,792,124,2014-10-01T13:55:00,0,28136345,187377
OK,124,53,792,124,2014-10-01T14:00:00,0,28136785,187377
OK,124,53,792,124,2014-10-01T14:05:00,0,28137234,187377
OK,124,53,792,124,2014-10-01T14:10:00,0,28137669,187377
OK,124,53,792,124,2014-10-01T14:15:00,0,28138117,187377
OK,124,53,792,124,2014-10-01T14:20:00,0,28138546,187377
OK,124,53,792,124,2014-10-01T14:25:00,0,28138994,187377
OK,239,27,792,239,2014-10-01T14:30:00,1,28139406,187377
OK,193,34,792,193,2014-10-01T14:35:00,2,28139854,187377
OK,147,44,792,147,2014-10-01T14:40:00,1,28140297,187377
OK,147,44,792,147,2014-10-01T14:45:00,0,28140745,187377
OK,147,44,792,147,2014-10-01T14:50:00,0,28141173,187377
OK,122,54,792,122,2014-10-01T15:00:00,1,28141620,187377
OK,122,54,792,122,2014-10-01T15:10:00,0,28142497,187377
OK,122,54,792,122,2014-10-01T15:15:00,0,28143373,187377
OK,159,41,792,159,2014-10-01T15:25:00,1,28143821,187377
OK,159,41,792,159,2014-10-01T15:30:00,1,28144270,187377
OK,159,41,792,159,2014-10-01T15:35:00,0,28145105,187377
OK,159,41,792,159,2014-10-01T15:40:00,0,28145554,187377
OK,159,41,792,159,2014-10-01T15:45:00,0,28146003,187377
OK,159,41,792,159,2014-10-01T15:55:00,0,28146452,187377
OK,159,41,792,159,2014-10-01T16:00:00,0,28146893,187377
OK,159,41,792,159,2014-10-01T16:05:00,0,28147753,187377
OK,159,41,792,159,2014-10-01T16:10:00,0,28148158,187377
OK,159,41,792,159,2014-10-01T16:20:00,0,28148603,187377
OK,145,45,792,145,2014-10-01T16:30:00,1,28149491,187377
OK,145,45,792,145,2014-10-01T16:40:00,0,28150366,187377
OK,145,45,792,145,2014-10-01T16:50:00,0,28151233,187377
OK,145,45,792,145,2014-10-01T16:55:00,0,28151682,187377
OK,145,45,792,145,2014-10-01T17:00:00,0,28152131,187377
OK,145,45,792,145,2014-10-01T17:05:00,0,28152577,187377
OK,145,45,792,145,2014-10-01T17:10:00,0,28153024,187377
OK,145,45,792,145,2014-10-01T17:20:00,0,28153473,187377
OK,140,47,792,140,2014-10-01T17:30:00,1,28154332,187377
OK,140,47,792,140,2014-10-01T17:35:00,0,28154778,187377
OK,140,47,792,140,2014-10-01T17:40:00,0,28155223,187377
OK,140,47,792,140,2014-10-01T17:45:00,0,28156089,187377
OK,140,47,792,140,2014-10-01T17:55:00,0,28156538,187377
OK,140,47,792,140,2014-10-01T18:00:00,0,28156980,187377
OK,140,47,792,140,2014-10-01T18:10:00,0,28157854,187377
OK,140,47,792,140,2014-10-01T18:15:00,0,28158745,187377
OK,140,47,792,140,2014-10-01T18:20:00,0,28159190,187377
OK,140,47,792,140,2014-10-01T18:25:00,0,28159526,187377
OK,140,47,792,140,2014-10-01T18:30:00,0,28159974,187377
OK,140,47,792,140,2014-10-01T18:40:00,0,28160423,187377
OK,140,47,792,140,2014-10-01T18:50:00,0,28161310,187377
OK,140,47,792,140,2014-10-01T19:00:00,0,28162176,187377
OK,140,47,792,140,2014-10-01T19:05:00,0,28162619,187377
OK,140,47,792,140,2014-10-01T19:10:00,0,28163457,187377
OK,140,47,792,140,2014-10-01T19:20:00,0,28163906,187377
OK,140,47,792,140,2014-10-01T19:30:00,0,28164786,187377
OK,140,47,792,140,2014-10-01T19:35:00,0,28165659,187377
OK,140,47,792,140,2014-10-01T19:40:00,0,28166100,187377
OK,140,47,792,140,2014-10-01T19:45:00,0,28166462,187377
OK,140,47,792,140,2014-10-01T19:50:00,0,28166911,187377
OK,140,47,792,140,2014-10-01T19:55:00,0,28167340,187377
OK,140,47,792,140,2014-10-01T20:00:00,0,28167774,187377
OK,140,47,792,140,2014-10-01T20:05:00,0,28168222,187377
OK,140,47,792,140,2014-10-01T20:10:00,0,28168667,187377
OK,140,47,792,140,2014-10-01T20:15:00,0,28169116,187377
OK,140,47,792,140,2014-10-01T20:20:00,0,28169564,187377
OK,140,47,792,140,2014-10-01T20:25:00,0,28169990,187377
OK,140,47,792,140,2014-10-01T20:30:00,0,28170435,187377
OK,140,47,792,140,2014-10-01T20:35:00,0,28170883,187377
OK,140,47,792,140,2014-10-01T20:40:00,0,28171320,187377
OK,140,47,792,140,2014-10-01T20:45:00,0,28171766,187377
OK,140,47,792,140,2014-10-01T20:50:00,0,28172214,187377
OK,140,47,792,140,2014-10-01T20:55:00,0,28172660,187377
OK,140,47,792,140,2014-10-01T21:00:00,0,28173106,187377
OK,140,47,792,140,2014-10-01T21:05:00,0,28173555,187377
OK,140,47,792,140,2014-10-01T21:10:00,0,28173996,187377
OK,140,47,792,140,2014-10-01T21:15:00,0,28174445,187377
OK,140,47,792,140,2014-10-01T21:20:00,0,28174871,187377
OK,140,47,792,140,2014-10-01T21:25:00,0,28175267,187377
OK,140,47,792,140,2014-10-01T21:30:00,0,28175716,187377
OK,140,47,792,140,2014-10-01T21:35:00,0,28176165,187377
OK,140,47,792,140,2014-10-01T21:45:00,0,28176614,187377
OK,140,47,792,140,2014-10-01T21:50:00,0,28177410,187377
OK,140,47,792,140,2014-10-01T21:55:00,0,28177856,187377
OK,140,47,792,140,2014-10-01T22:00:00,0,28178305,187377
OK,140,47,792,140,2014-10-01T22:05:00,0,28178752,187377
OK,140,47,792,140,2014-10-01T22:10:00,0,28179189,187377
OK,140,47,792,140,2014-10-01T22:15:00,0,28179629,187377
OK,140,47,792,140,2014-10-01T22:20:00,0,28180076,187377
OK,140,47,792,140,2014-10-01T22:25:00,0,28180475,187377
OK,140,47,792,140,2014-10-01T22:30:00,0,28180923,187377
OK,140,47,792,140,2014-10-01T22:35:00,0,28181347,187377
OK,140,47,792,140,2014-10-01T22:40:00,0,28181795,187377
OK,140,47,792,140,2014-10-01T22:45:00,0,28182242,187377
OK,140,47,792,140,2014-10-01T22:50:00,0,28182691,187377
OK,140,47,792,140,2014-10-01T22:55:00,0,28183108,187377
OK,140,47,792,140,2014-10-01T23:00:00,0,28183541,187377
OK,140,47,792,140,2014-10-01T23:05:00,0,28183986,187377
OK,140,47,792,140,2014-10-01T23:10:00,0,28184435,187377
OK,140,47,792,140,2014-10-01T23:15:00,0,28184870,187377
OK,140,47,792,140,2014-10-01T23:20:00,0,28185318,187377
OK,140,47,792,140,2014-10-01T23:25:00,0,28185749,187377
OK,140,47,792,140,2014-10-01T23:30:00,0,28186141,187377
OK,140,47,792,140,2014-10-01T23:35:00,0,28186590,187377
OK,140,47,792,140,2014-10-01T23:40:00,0,28186988,187377
OK,140,47,792,140,2014-10-01T23:45:00,0,28187430,187377
OK,140,47,792,140,2014-10-01T23:50:00,0,28187879,187377
OK,140,47,792,140,2014-10-01T23:55:00,0,28188320,187377
OK,140,47,792,140,2014-10-02T00:00:00,0,28188756,187377
OK,140,47,792,140,2014-10-02T00:10:00,0,28189205,187377
OK,140,47,792,140,2014-10-02T00:20:00,0,28190076,187377
OK,140,47,792,140,2014-10-02T00:25:00,0,28190878,187377
OK,140,47,792,140,2014-10-02T00:35:00,0,28191327,187377
OK,140,47,792,140,2014-10-02T00:45:00,0,28192082,187377
OK,140,47,792,140,2014-10-02T00:50:00,0,28192959,187377
OK,140,47,792,140,2014-10-02T00:55:00,0,28193326,187377
OK,140,47,792,140,2014-10-02T01:00:00,0,28193775,187377
OK,140,47,792,140,2014-10-02T01:10:00,0,28194224,187377
OK,140,47,792,140,2014-10-02T01:15:00,0,28194673,187377
OK,140,47,792,140,2014-10-02T01:20:00,0,28195358,187377
OK,140,47,792,140,2014-10-02T01:30:00,0,28195807,187377
OK,140,47,792,140,2014-10-02T01:40:00,0,28196540,187377
OK,140,47,792,140,2014-10-02T01:45:00,0,28197412,187377
OK,140,47,792,140,2014-10-02T01:50:00,0,28197860,187377
OK,140,47,792,140,2014-10-02T02:00:00,0,28198308,187377
OK,140,47,792,140,2014-10-02T02:05:00,0,28198757,187377
OK,140,47,792,140,2014-10-02T02:10:00,0,28199571,187377
OK,140,47,792,140,2014-10-02T02:15:00,0,28200013,187377
OK,140,47,792,140,2014-10-02T02:20:00,0,28200456,187377
OK,140,47,792,140,2014-10-02T02:25:00,0,28200905,187377
OK,140,47,792,140,2014-10-02T02:30:00,0,28201336,187377
OK,140,47,792,140,2014-10-02T02:45:00,0,28202234,187377
OK,140,47,792,140,2014-10-02T02:50:00,0,28202676,187377
OK,140,47,792,140,2014-10-02T02:55:00,0,28203124,187377
OK,140,47,792,140,2014-10-02T03:00:00,0,28203559,187377
OK,140,47,792,140,2014-10-02T03:10:00,0,28204008,187377
OK,140,47,792,140,2014-10-02T03:25:00,0,28204457,187377
OK,140,47,792,140,2014-10-02T03:35:00,0,28204906,187377
OK,140,47,792,140,2014-10-02T03:40:00,0,28205781,187377
OK,140,47,792,140,2014-10-02T03:45:00,0,28206164,187377
OK,140,47,792,140,2014-10-02T04:00:00,0,28207062,187377
OK,140,47,792,140,2014-10-02T04:10:00,0,28207930,187377
OK,140,47,792,140,2014-10-02T04:20:00,0,28208806,187377
OK,140,47,792,140,2014-10-02T04:30:00,0,28209693,187377
OK,140,47,792,140,2014-10-02T04:40:00,0,28210565,187377
OK,140,47,792,140,2014-10-02T04:45:00,0,28211434,187377
OK,140,47,792,140,2014-10-02T04:50:00,0,28211812,187377
OK,1304,5,792,1304,2014-10-02T05:00:00,0,28212261,187377
OK,1304,5,792,1304,2014-10-02T05:10:00,0,28213139,187377
OK,1217,5,792,1217,2014-10-02T05:15:00,1,28213588,187377
OK,1217,5,792,1217,2014-10-02T05:20:00,0,28214026,187377
OK,1217,5,792,1217,2014-10-02T05:30:00,0,28214888,187377
OK,1217,5,792,1217,2014-10-02T05:40:00,0,28215753,187377
OK,1217,5,792,1217,2014-10-02T05:45:00,0,28216197,187377
OK,1217,5,792,1217,2014-10-02T05:50:00,0,28216981,187377
OK,226,29,792,226,2014-10-02T06:00:00,1,28217428,187377
OK,226,29,792,226,2014-10-02T06:05:00,1,28217871,187377
OK,226,29,792,226,2014-10-02T06:10:00,0,28218316,187377
OK,226,29,792,226,2014-10-02T06:15:00,0,28219185,187377
OK,226,29,792,226,2014-10-02T06:20:00,0,28219560,187377
OK,226,29,792,226,2014-10-02T06:30:00,0,28220007,187377
OK,226,29,792,226,2014-10-02T06:40:00,0,28220890,187377
OK,226,29,792,226,2014-10-02T06:45:00,0,28221557,187377
OK,226,29,792,226,2014-10-02T07:00:00,0,28222151,187377
OK,226,29,792,226,2014-10-02T07:10:00,0,28222600,187377
OK,226,29,792,226,2014-10-02T07:15:00,0,28223467,187377
OK,226,29,792,226,2014-10-02T07:20:00,0,28223914,187377
OK,226,29,792,226,2014-10-02T07:25:00,0,28224269,187377
OK,226,29,792,226,2014-10-02T07:30:00,0,28224718,187377
OK,226,29,792,226,2014-10-02T07:40:00,0,28225167,187377
OK,226,29,792,226,2014-10-02T07:50:00,0,28225938,187377
OK,226,29,792,226,2014-10-02T08:00:00,0,28226828,187377
OK,226,29,792,226,2014-10-02T08:10:00,0,28227692,187377
OK,194,34,792,194,2014-10-02T08:20:00,0,28228500,187377
OK,150,44,792,150,2014-10-02T08:30:00,1,28229359,187377
OK,99,66,792,99,2014-10-02T08:40:00,1,28230158,187377
OK,137,48,792,137,2014-10-02T08:50:00,1,28230973,187377
OK,137,48,792,137,2014-10-02T08:55:00,1,28231409,187377
OK,137,48,792,137,2014-10-02T09:00:00,0,28231845,187377
OK,137,48,792,137,2014-10-02T09:10:00,0,28232636,187377
OK,181,36,792,181,2014-10-02T09:20:00,0,28233085,187377
OK,107,61,792,107,2014-10-02T09:25:00,2,28233522,187377
OK,107,61,792,107,2014-10-02T09:30:00,0,28233958,187377
OK,128,51,792,128,2014-10-02T09:35:00,0,28234740,187377
OK,128,51,792,128,2014-10-02T09:40:00,0,28235167,187377
OK,108,61,792,108,2014-10-02T09:50:00,1,28235616,187377
OK,108,61,792,108,2014-10-02T10:00:00,0,28236506,187377
OK,108,61,792,108,2014-10-02T10:05:00,0,28237357,187377
OK,108,61,792,108,2014-10-02T10:10:00,0,28237805,187377
OK,165,40,792,165,2014-10-02T10:20:00,1,28238253,187377
OK,165,40,792,165,2014-10-02T10:25:00,1,28239142,187377
OK,165,40,792,165,2014-10-02T10:30:00,0,28239573,187377
OK,165,40,792,165,2014-10-02T10:35:00,1,28240021,187377
OK,165,40,792,165,2014-10-02T10:40:00,0,28240466,187377
OK,165,40,792,165,2014-10-02T10:50:00,0,28240914,187377
OK,165,40,792,165,2014-10-02T11:00:00,0,28241794,187377
OK,165,40,792,165,2014-10-02T11:10:00,0,28242639,187377
OK,165,40,792,165,2014-10-02T11:15:00,0,28243088,187377
OK,165,40,792,165,2014-10-02T11:20:00,0,28243532,187377
OK,165,40,792,165,2014-10-02T11:25:00,0,28244281,187377
OK,165,40,792,165,2014-10-02T11:30:00,0,28244729,187377
OK,141,46,792,141,2014-10-02T11:40:00,0,28245178,187377
OK,141,46,792,141,2014-10-02T11:45:00,0,28246033,187377
OK,141,46,792,141,2014-10-02T11:50:00,0,28246470,187377
OK,176,37,792,176,2014-10-02T11:55:00,2,28246919,187377
OK,176,37,792,176,2014-10-02T12:00:00,2,28247365,187377
OK,176,37,792,176,2014-10-02T12:05:00,0,28247797,187377
OK,176,37,792,176,2014-10-02T12:10:00,0,28248244,187377
OK,115,57,792,115,2014-10-02T12:20:00,0,28248692,187377
OK,115,57,792,115,2014-10-02T12:30:00,0,28249563,187377
OK,115,57,792,115,2014-10-02T12:35:00,0,28250380,187377
OK,115,57,792,115,2014-10-02T12:45:00,0,28251160,187377
OK,115,57,792,115,2014-10-02T13:20:00,0,28251705,187377
OK,115,57,792,115,2014-10-02T13:30:00,0,28252289,187377
OK,115,57,792,115,2014-10-02T13:35:00,0,28252731,187377
OK,115,57,792,115,2014-10-02T13:40:00,0,28253148,187377
OK,108,61,792,108,2014-10-02T13:45:00,1,28253597,187377
OK,108,61,792,108,2014-10-02T13:50:00,1,28254003,187377
OK,108,61,792,108,2014-10-02T13:55:00,0,28254323,187377
OK,108,61,792,108,2014-10-02T14:10:00,0,28254900,187377
OK,108,61,792,108,2014-10-02T14:15:00,0,28255349,187377
OK,108,61,792,108,2014-10-02T14:20:00,0,28255777,187377
OK,108,61,792,108,2014-10-02T14:25:00,0,28256226,187377
OK,161,41,792,161,2014-10-02T14:30:00,1,28256654,187377
OK,143,46,792,143,2014-10-02T14:35:00,1,28257103,187377
OK,143,46,792,143,2014-10-02T14:40:00,0,28257544,187377
OK,143,46,792,143,2014-10-02T14:45:00,0,28257992,187377
OK,143,46,792,143,2014-10-02T14:50:00,0,28258425,187377
OK,108,61,792,108,2014-10-02T14:55:00,1,28258871,187377
OK,108,61,792,108,2014-10-02T15:00:00,0,28259320,187377
OK,151,43,792,151,2014-10-02T15:05:00,1,28259767,187377
OK,151,43,792,151,2014-10-02T15:10:00,1,28260200,187377
OK,151,43,792,151,2014-10-02T15:15:00,0,28260649,187377
OK,151,43,792,151,2014-10-02T15:20:00,0,28261089,187377
OK,151,43,792,151,2014-10-02T15:25:00,0,28261471,187377
OK,151,43,792,151,2014-10-02T15:30:00,0,28261901,187377
OK,151,43,792,151,2014-10-02T15:35:00,0,28262348,187377
OK,151,43,792,151,2014-10-02T15:40:00,0,28262794,187377
OK,151,43,792,151,2014-10-02T15:45:00,0,28263232,187377
OK,151,43,792,151,2014-10-02T15:50:00,0,28263673,187377
OK,151,43,792,151,2014-10-02T15:55:00,0,28264075,187377
OK,151,43,792,151,2014-10-02T16:00:00,0,28264524,187377
OK,116,57,792,116,2014-10-02T16:05:00,0,28264962,187377
OK,116,57,792,116,2014-10-02T16:10:00,0,28265402,187377
OK,116,57,792,116,2014-10-02T16:15:00,0,28265798,187377
OK,116,57,792,116,2014-10-02T16:20:00,0,28266247,187377
OK,116,57,792,116,2014-10-02T16:25:00,0,28266696,187377
OK,116,57,792,116,2014-10-02T16:30:00,0,28267019,187377
OK,116,57,792,116,2014-10-02T16:35:00,0,28267468,187377
OK,116,57,792,116,2014-10-02T16:40:00,0,28267917,187377
OK,116,57,792,116,2014-10-02T16:45:00,0,28268359,187377
OK,116,57,792,116,2014-10-02T16:50:00,0,28268808,187377
OK,116,57,792,116,2014-10-02T16:55:00,0,28269257,187377
OK,116,57,792,116,2014-10-02T17:00:00,0,28269692,187377
OK,116,57,792,116,2014-10-02T17:05:00,0,28270141,187377
OK,116,57,792,116,2014-10-02T17:10:00,0,28270575,187377
OK,116,57,792,116,2014-10-02T17:15:00,0,28271024,187377
OK,116,57,792,116,2014-10-02T17:20:00,0,28271454,187377
OK,116,57,792,116,2014-10-02T17:25:00,0,28271902,187377
OK,116,57,792,116,2014-10-02T17:30:00,0,28272338,187377
OK,116,57,792,116,2014-10-02T17:35:00,0,28272779,187377
OK,116,57,792,116,2014-10-02T17:40:00,0,28273227,187377
OK,121,54,792,121,2014-10-02T17:45:00,2,28273673,187377
OK,131,50,792,131,2014-10-02T17:55:00,0,28274122,187377
OK,131,50,792,131,2014-10-02T18:00:00,0,28274896,187377
OK,131,50,792,131,2014-10-02T18:05:00,0,28275335,187377
OK,131,50,792,131,2014-10-02T18:10:00,0,28275780,187377
OK,131,50,792,131,2014-10-02T18:15:00,0,28276226,187377
OK,131,50,792,131,2014-10-02T18:20:00,0,28276622,187377
OK,131,50,792,131,2014-10-02T18:30:00,0,28277071,187377
OK,131,50,792,131,2014-10-02T18:40:00,0,28277520,187377
OK,131,50,792,131,2014-10-02T18:45:00,0,28278317,187377
OK,131,50,792,131,2014-10-02T19:00:00,0,28278766,187377
OK,131,50,792,131,2014-10-02T19:05:00,0,28279215,187377
OK,131,50,792,131,2014-10-02T19:10:00,0,28279660,187377
OK,131,50,792,131,2014-10-02T19:15:00,0,28280101,187377
OK,131,50,792,131,2014-10-02T19:20:00,0,28280548,187377
OK,131,50,792,131,2014-10-02T19:25:00,0,28280952,187377
OK,131,50,792,131,2014-10-02T19:35:00,0,28281850,187377
OK,131,50,792,131,2014-10-02T19:40:00,0,28282281,187377
OK,131,50,792,131,2014-10-02T19:45:00,0,28282730,187377
OK,131,50,792,131,2014-10-02T19:50:00,0,28283177,187377
OK,131,50,792,131,2014-10-02T19:55:00,0,28283607,187377
OK,131,50,792,131,2014-10-02T20:00:00,0,28283977,187377
OK,131,50,792,131,2014-10-02T20:10:00,0,28284426,187377
OK,131,50,792,131,2014-10-02T20:15:00,0,28285209,187377
OK,131,50,792,131,2014-10-02T20:20:00,0,28285645,187377
OK,131,50,792,131,2014-10-02T20:25:00,0,28286060,187377
OK,131,50,792,131,2014-10-02T20:35:00,0,28286912,187377
OK,131,50,792,131,2014-10-02T20:40:00,0,28287343,187377
OK,0,0,792,0,2014-10-03T22:35:00,0,28291623,187377
OK,0,0,792,0,2014-10-03T22:40:00,0,28292072,187377
OK,0,0,792,0,2014-10-03T22:45:00,0,28292521,187377
OK,0,0,792,0,2014-10-03T22:50:00,0,28292967,187377
OK,0,0,792,0,2014-10-03T22:55:00,0,28293416,187377
OK,0,0,792,0,2014-10-03T23:00:00,0,28293865,187377
OK,0,0,792,0,2014-10-03T23:05:00,0,28294294,187377
OK,0,0,792,0,2014-10-03T23:10:00,0,28294730,187377
OK,0,0,792,0,2014-10-03T23:15:00,0,28295170,187377
OK,0,0,792,0,2014-10-03T23:25:00,0,28295619,187377
OK,0,0,792,0,2014-10-03T23:30:00,0,28296062,187377
OK,0,0,792,0,2014-10-03T23:35:00,0,28296511,187377
OK,0,0,792,0,2014-10-03T23:40:00,0,28296914,187377
OK,0,0,792,0,2014-10-03T23:45:00,0,28297341,187377
OK,0,0,792,0,2014-10-03T23:50:00,0,28297790,187377
OK,0,0,792,0,2014-10-03T23:55:00,0,28298239,187377
OK,0,0,792,0,2014-10-04T00:00:00,0,28298616,187377
OK,0,0,792,0,2014-10-04T00:15:00,0,28299220,187377